| time (UTC) | temp F | wind direction | speed MPH | gust MPH | rain 1hr in | rain 24hr in | rain mn in | humidity % | barometer mb |
| 20260503020021 | 77 | 35 | 8.0 | 14.0 | 0.00 | 0.00 | 0.00 | 61 | 1019.4 |
| 20260503014520 | 77 | 127 | 8.0 | 16.0 | 0.00 | 0.00 | 0.00 | 63 | 1019.6 |
| 20260503013018 | 77 | 67 | 8.0 | 15.0 | 0.00 | 0.00 | 0.00 | 64 | 1019.9 |
| 20260503011515 | 76 | 67 | 8.0 | 16.0 | 0.00 | 0.00 | 0.00 | 63 | 1020.0 |
| 20260503010013 | 76 | 44 | 7.0 | 13.0 | 0.00 | 0.00 | 0.00 | 63 | 1020.2 |
| 20260503004513 | 77 | 20 | 7.0 | 13.0 | 0.00 | 0.00 | 0.00 | 61 | 1020.5 |
| 20260503003010 | 76 | 18 | 6.0 | 12.0 | 0.00 | 0.00 | 0.00 | 65 | 1020.5 |
| 20260503001508 | 75 | 5 | 5.0 | 13.0 | 0.00 | 0.00 | 0.00 | 64 | 1020.6 |
| 20260503000005 | 75 | 37 | 3.0 | 11.0 | 0.00 | 0.00 | 0.00 | 66 | 1020.7 |
| 20260502234503 | 74 | 62 | 5.0 | 11.0 | 0.00 | 0.00 | 0.00 | 65 | 1020.8 |
| 20260502233002 | 74 | 20 | 3.0 | 11.0 | 0.00 | 0.00 | 0.00 | 66 | 1021.2 |
| 20260502231501 | 74 | 83 | 3.0 | 10.0 | 0.00 | 0.00 | 0.00 | 66 | 1021.1 |
| 20260502230058 | 73 | 62 | 3.0 | 12.0 | 0.00 | 0.00 | 0.00 | 67 | 1021.2 |
| 20260502224553 | 71 | 71 | 5.0 | 12.0 | 0.00 | 0.00 | 0.00 | 72 | 1021.0 |
| 20260502223051 | 71 | 24 | 4.0 | 10.0 | 0.00 | 0.00 | 0.00 | 74 | 1021.0 |
| 20260502221548 | 69 | 39 | 2.0 | 9.0 | 0.00 | 0.00 | 0.00 | 77 | 1021.2 |
| 20260502220050 | 68 | 40 | 4.0 | 9.0 | 0.00 | 0.00 | 0.00 | 78 | 1021.1 |
| 20260502214546 | 67 | 27 | 4.0 | 9.0 | 0.00 | 0.00 | 0.00 | 79 | 1020.8 |
| 20260502213045 | 67 | 43 | 4.0 | 9.0 | 0.00 | 0.00 | 0.00 | 80 | 1020.6 |
| 20260502211548 | 66 | 62 | 5.0 | 9.0 | 0.00 | 0.00 | 0.00 | 80 | 1020.8 |
| 20260502210050 | 66 | 42 | 4.0 | 10.0 | 0.00 | 0.00 | 0.00 | 81 | 1020.7 |
| 20260502204543 | 66 | 47 | 4.0 | 6.0 | 0.00 | 0.00 | 0.00 | 80 | 1020.7 |
| 20260502203042 | 66 | 44 | 3.0 | 7.0 | 0.00 | 0.00 | 0.00 | 80 | 1020.7 |
| 20260502201641 | 66 | 39 | 3.0 | 8.0 | 0.00 | 0.00 | 0.00 | 79 | 1020.7 |
| 20260502200042 | 66 | 30 | 4.0 | 9.0 | 0.00 | 0.00 | 0.00 | 79 | 1020.6 |
| 20260502194540 | 66 | 360 | 4.0 | 10.0 | 0.00 | 0.00 | 0.00 | 80 | 1020.5 |
| 20260502193039 | 66 | 37 | 2.0 | 8.0 | 0.00 | 0.00 | 0.00 | 81 | 1020.5 |
| 20260502191539 | 66 | 38 | 3.0 | 9.0 | 0.00 | 0.00 | 0.00 | 81 | 1020.3 |
| 20260502190038 | 66 | 14 | 3.0 | 7.0 | 0.00 | 0.00 | 0.00 | 82 | 1020.3 |
| 20260502184547 | 66 | 78 | 3.0 | 10.0 | 0.00 | 0.00 | 0.00 | 81 | 1020.5 |
| 20260502183035 | 66 | 5 | 2.0 | 9.0 | 0.00 | 0.00 | 0.00 | 81 | 1020.5 |
| 20260502181535 | 66 | 16 | 3.0 | 8.0 | 0.00 | 0.00 | 0.00 | 80 | 1020.4 |
| 20260502163026 | 67 | 24 | 5.0 | 10.0 | 0.00 | 0.13 | 0.00 | 79 | 1020.9 |
| 20260502161522 | 67 | 41 | 5.0 | 10.0 | 0.00 | 0.13 | 0.00 | 79 | 1021.1 |
| 20260502160123 | 67 | 37 | 4.0 | 10.0 | 0.00 | 0.13 | 0.00 | 79 | 1021.1 |
| 20260502151514 | 68 | 48 | 3.0 | 11.0 | 0.00 | 0.17 | 0.00 | 78 | 1021.2 |
| 20260502123105 | 71 | 41 | 9.0 | 15.0 | 0.00 | 0.17 | 0.17 | 74 | 1021.7 |
| 20260502121609 | 71 | 328 | 9.0 | 15.0 | 0.00 | 0.17 | 0.17 | 74 | 1021.9 |
| 20260502114558 | 71 | 30 | 10.0 | 18.0 | 0.00 | 0.17 | 0.17 | 76 | 1021.9 |
| 20260502113056 | 70 | 120 | 9.0 | 19.0 | 0.00 | 0.17 | 0.17 | 75 | 1021.9 |
| 20260502111600 | 71 | 58 | 9.0 | 22.0 | 0.00 | 0.17 | 0.17 | 76 | 1022.1 |
| 20260502110058 | 71 | 323 | 7.0 | 15.0 | 0.00 | 0.17 | 0.17 | 77 | 1021.9 |
| 20260502104555 | 71 | 24 | 8.0 | 14.0 | 0.00 | 0.17 | 0.17 | 76 | 1022.3 |
| 20260502103104 | 71 | 328 | 8.0 | 19.0 | 0.00 | 0.17 | 0.17 | 74 | 1022.2 |
| 20260502101616 | 71 | 28 | 11.0 | 23.0 | 0.00 | 0.17 | 0.17 | 74 | 1022.0 |
| 20260502070040 | 71 | 337 | 8.0 | 18.0 | 0.00 | 0.17 | 0.17 | 79 | 1021.4 |
| 20260502064543 | 71 | 114 | 7.0 | 14.0 | 0.00 | 0.17 | 0.17 | 76 | 1021.3 |
| 20260502063039 | 72 | 37 | 8.0 | 16.0 | 0.00 | 0.17 | 0.17 | 75 | 1021.1 |
| 20260502061539 | 73 | 79 | 7.0 | 16.0 | 0.00 | 0.17 | 0.17 | 74 | 1021.0 |
| 20260502060036 | 72 | 19 | 7.0 | 14.0 | 0.00 | 0.17 | 0.17 | 75 | 1021.2 |
| 20260502054536 | 72 | 343 | 8.0 | 19.0 | 0.00 | 0.17 | 0.17 | 75 | 1021.2 |
| 20260502053037 | 73 | 69 | 8.0 | 17.0 | 0.00 | 0.17 | 0.17 | 74 | 1021.2 |
| 20260502051539 | 76 | 311 | 8.0 | 17.0 | 0.00 | 0.17 | 0.17 | 68 | 1021.4 |
| 20260502050038 | 76 | 292 | 8.0 | 18.0 | 0.00 | 0.17 | 0.17 | 70 | 1021.4 |
| 20260502044532 | 76 | 83 | 6.0 | 15.0 | 0.00 | 0.17 | 0.17 | 70 | 1021.5 |
| 20260502043028 | 77 | 108 | 7.0 | 12.0 | 0.00 | 0.17 | 0.17 | 69 | 1021.6 |
| 20260502041535 | 77 | 99 | 5.0 | 13.0 | 0.00 | 0.17 | 0.17 | 68 | 1021.7 |
| 20260502040029 | 77 | 57 | 6.0 | 12.0 | 0.00 | 0.17 | 0.17 | 67 | 1021.6 |
| 20260502034531 | 77 | 52 | 6.0 | 13.0 | 0.00 | 0.17 | 0.17 | 67 | 1021.8 |
| 20260502033023 | 77 | 41 | 9.0 | 15.0 | 0.00 | 0.17 | 0.17 | 67 | 1021.7 |
| 20260502031523 | 75 | 53 | 7.0 | 17.0 | 0.00 | 0.17 | 0.17 | 71 | 1021.7 |
| 20260502030022 | 76 | 42 | 8.0 | 17.0 | 0.00 | 0.17 | 0.17 | 69 | 1022.0 |
| 20260502024520 | 75 | 20 | 8.0 | 14.0 | 0.00 | 0.17 | 0.17 | 68 | 1022.3 |
| 20260502023018 | 76 | 10 | 5.0 | 11.0 | 0.00 | 0.17 | 0.17 | 68 | 1022.7 |
| 20260502021515 | 74 | 41 | 7.0 | 14.0 | 0.00 | 0.17 | 0.17 | 73 | 1022.9 |